Change the Weather History Date:

Friday, March 16, 2012

  Actual Average Record
Temperature  
Mean Temperature 0 °F 11 °F  
Max Temperature 11 °F 25 °F 46 °F (1937)
Min Temperature -11 °F -3 °F -40 °F (1959)
Degree Days  
Heating Degree Days 65 54  
Month to date heating degree days 1040 923  
Since 1 July heating degree days 11587 11313  
Cooling Degree Days 0 0  
Month to date cooling degree days 0 0  
Year to date cooling degree days 0 0  
Moisture  
Dew Point -9 °F    
Average Humidity 65    
Maximum Humidity 87    
Minimum Humidity 48    
Precipitation  
Precipitation 0.00 in 0.01 in 0.45 in (1918)
Month to date precipitation 0.67 0.15  
Year to date precipitation 1.78 1.15  
Snow  
Snow 0.00 in 0.10 in 4.50 in (1918)
Month to date snowfall 13.4 2.8  
Since 1 July snowfall 56.1 59.1  
Snow Depth 24.00 in    
Sea Level Pressure  
Sea Level Pressure 29.49 in    
Wind  
Wind Speed 6 mph (NE)    
Max Wind Speed 12 mph    
Max Gust Speed -    
Visibility 10 miles    
Events      
T = Trace of Precipitation, MM = Missing Value Source: NWS Daily Summary

Daily Weather History Graph

Daily Weather History Graph

Search for Another Location

Airport or City:

Trip Planner

Search our weather history database for the weather conditions in past years. The results will help you decide how hot, cold, wet, or windy it might be!

Date:

Astronomy

Mar. 16, 2012 Rise Set
Actual Time 8:04 AM AKDT 7:57 PM AKDT
Civil Twilight 7:15 AM AKDT 8:46 PM AKDT
Nautical Twilight 6:16 AM AKDT 9:45 PM AKDT
Astronomical Twilight 5:10 AM AKDT 10:52 PM AKDT
Moon 6:36 AM AKDT (3/16) 12:25 PM AKDT (3/16)
Length of Visible Light 13h 30m
Length of Day
11h 53m
Waning Crescent, 31% of the Moon is Illuminated
Mar 16
Waning Crescent
Mar 22
New
Mar 30
First Quarter
Apr 6
Full
Apr 13
Last Quarter

Hourly Weather History & Observations

Time (AKDT) Temp. Windchill Dew Point Humidity Pressure Visibility Wind Dir Wind Speed Gust Speed Precip Events Conditions
12:53 AM -2.0 °F -13.9 °F -7.1 °F 79% 29.34 in 10.0 mi NNE 5.8 mph - N/A   Scattered Clouds
1:53 AM -7.1 °F -18.1 °F -9.9 °F 87% 29.34 in 10.0 mi ENE 4.6 mph - N/A   Scattered Clouds
2:53 AM -0.9 °F -14.1 °F -8.0 °F 72% 29.36 in 10.0 mi ENE 6.9 mph - N/A   Scattered Clouds
3:53 AM -6.0 °F -16.9 °F -9.9 °F 83% 29.37 in 10.0 mi NE 4.6 mph - N/A   Scattered Clouds
4:53 AM -6.0 °F -18.6 °F -11.9 °F 75% 29.39 in 10.0 mi ENE 5.8 mph - N/A   Scattered Clouds
5:53 AM -9.0 °F -22.3 °F -14.1 °F 79% 29.40 in 10.0 mi NE 5.8 mph - N/A   Scattered Clouds
6:53 AM -4.0 °F -17.8 °F -11.0 °F 72% 29.42 in 10.0 mi NE 6.9 mph - N/A   Scattered Clouds
7:53 AM -9.0 °F -23.8 °F -15.0 °F 75% 29.44 in 10.0 mi NNE 6.9 mph - N/A   Scattered Clouds
8:53 AM -2.9 °F -13.3 °F -11.0 °F 68% 29.45 in 10.0 mi NE 4.6 mph - N/A   Scattered Clouds
9:53 AM -4.0 °F - -11.9 °F 69% 29.47 in 10.0 mi Calm Calm - N/A   Partly Cloudy
10:53 AM 3.0 °F - -7.8 °F 61% 29.48 in 10.0 mi Calm Calm - N/A   Partly Cloudy
11:53 AM 1.9 °F -7.6 °F -9.0 °F 60% 29.49 in 10.0 mi SSE 4.6 mph - N/A   Partly Cloudy
12:53 PM 3.9 °F -5.3 °F -8.0 °F 58% 29.51 in 10.0 mi SSW 4.6 mph - N/A   Partly Cloudy
1:53 PM 6.1 °F -5.6 °F -7.1 °F 55% 29.52 in 10.0 mi SSW 6.9 mph - N/A   Partly Cloudy
2:53 PM 8.1 °F -3.2 °F -6.0 °F 53% 29.52 in 10.0 mi SSW 6.9 mph - N/A   Partly Cloudy
3:53 PM 10.0 °F -1.9 °F -5.1 °F 51% 29.53 in 10.0 mi SSW 8.1 mph - N/A   Partly Cloudy
4:53 PM 10.0 °F -0.9 °F -5.1 °F 51% 29.54 in 10.0 mi SSW 6.9 mph - N/A   Partly Cloudy
5:53 PM 10.0 °F 0.4 °F -6.0 °F 48% 29.55 in 10.0 mi SSW 5.8 mph - N/A   Scattered Clouds
6:53 PM 10.0 °F -2.9 °F -6.0 °F 48% 29.57 in 10.0 mi North 9.2 mph - N/A   Scattered Clouds
7:53 PM 7.0 °F -4.5 °F -7.1 °F 53% 29.59 in 10.0 mi North 6.9 mph - N/A   Scattered Clouds
8:53 PM 3.9 °F -12.2 °F -8.0 °F 58% 29.61 in 10.0 mi North 11.5 mph - N/A   Scattered Clouds
9:53 PM -2.0 °F -13.9 °F -9.9 °F 69% 29.63 in 10.0 mi NNE 5.8 mph - N/A   Scattered Clouds
10:53 PM -2.9 °F -16.5 °F -13.0 °F 62% 29.65 in 10.0 mi North 6.9 mph - N/A   Partly Cloudy
11:53 PM -6.0 °F -20.1 °F -15.0 °F 65% 29.66 in 10.0 mi North 6.9 mph - N/A   Partly Cloudy